This is the latest recevied weather packets stored in our database for station/object KJ7HSW. If no packets are shown the sender has not sent any weather packets the latest 10 day(s).
| Time | Temp. | Humidity | Pressure | Rain* | Wind** | Luminosity | Snow |
|---|---|---|---|---|---|---|---|
| 1777762874 | 27.78° C | 36% | 1014.2 hPa | 0 mm | - | 579 W/m² | - |
| 1777762569 | 27.78° C | 39% | 1014.1 hPa | 0 mm | - | 592 W/m² | - |
| 1777762267 | 27.78° C | 35% | 1014.2 hPa | 0 mm | - | 605 W/m² | - |
| 1777761963 | 27.78° C | 34% | 1014.3 hPa | 0 mm | - | 619 W/m² | - |
| 1777761660 | 27.78° C | 36% | 1014.2 hPa | 0 mm | - | 632 W/m² | - |
| 1777761358 | 27.78° C | 33% | 1014.2 hPa | 0 mm | - | 644 W/m² | - |
| 1777761056 | 27.78° C | 32% | 1014.5 hPa | 0 mm | - | 656 W/m² | - |
| 1777760753 | 28.33° C | 31% | 1014.5 hPa | 0 mm | - | 669 W/m² | - |
| 1777760449 | 28.33° C | 31% | 1014.4 hPa | 0 mm | - | 677 W/m² | - |
| 1777760145 | 27.78° C | 32% | 1014.5 hPa | 0 mm | - | 688 W/m² | - |
| 1777759843 | 27.22° C | 32% | 1014.6 hPa | 0 mm | - | 699 W/m² | - |
| 1777759538 | 27.22° C | 31% | 1014.7 hPa | 0 mm | - | 709 W/m² | - |
| 1777759235 | 27.22° C | 32% | 1014.8 hPa | 0 mm | - | 715 W/m² | - |
| 1777758932 | 26.67° C | 32% | 1014.7 hPa | 0 mm | - | 724 W/m² | - |
| 1777758629 | 27.22° C | 32% | 1014.8 hPa | 0 mm | - | 732 W/m² | - |
| 1777758326 | 27.22° C | 31% | 1014.8 hPa | 0 mm | - | 742 W/m² | - |
| 1777758024 | 26.67° C | 32% | 1014.9 hPa | 0 mm | - | 748 W/m² | - |
| 1777757720 | 26.67° C | 32% | 1015 hPa | 0 mm | - | 757 W/m² | - |
| 1777757418 | 26.67° C | 32% | 1015.2 hPa | 0 mm | - | 765 W/m² | - |
| 1777757117 | 27.22° C | 34% | 1015.1 hPa | 0 mm | - | 772 W/m² | - |
| 1777756814 | 26.67° C | 32% | 1015.1 hPa | 0 mm | - | 776 W/m² | - |
| 1777756510 | 26.67° C | 32% | 1015.1 hPa | 0 mm | - | 781 W/m² | - |
| 1777756207 | 26.67° C | 34% | 1015.1 hPa | 0 mm | - | 784 W/m² | - |
| 1777755904 | 26.67° C | 32% | 1015 hPa | 0 mm | - | 785 W/m² | - |
| 1777755601 | 26.11° C | 33% | 1015.1 hPa | 0 mm | - | 791 W/m² | - |
* Rain latest hour (hover to see other rain measurements)
** Current wind speed in m/s (hover to see current wind gust speed)